XML Sitemap

This is a XML Sitemap which is supposed to be processed by search engines which follow the XML Sitemap standard like Ask.com, Bing, Google and Yahoo.
It was generated using the WordPress content management system and the Google Sitemap Generator Plugin by Arne Brachhold.
You can find more information about XML sitemaps on sitemaps.org and Google's list of sitemap programs.

URLPriorityChange frequencyLast modified (GMT)
http://cfarma2.com/confectionner-cache-sommier-en-boutis/5831/20%Monthly2018-05-31 23:50
http://cfarma2.com/balance-cuisine-leclerc-3/41438/20%Monthly2018-05-31 23:15
http://cfarma2.com/cuisine-blanche-ikea-2014/7234/20%Monthly2018-05-31 22:33
http://cfarma2.com/boutis-bicolore-250x250-2/43278/20%Monthly2018-05-31 15:02
http://cfarma2.com/boutis-chez-la-redoute/2104/20%Monthly2018-05-31 13:27
http://cfarma2.com/consei-pour-faire-boutis-2/49489/20%Monthly2018-05-31 12:41
http://cfarma2.com/boutis-blanc-avec-2-enveloppes-doreiller-2/43328/20%Monthly2018-05-31 11:33
http://cfarma2.com/avis-cuisine-ikea-3/41288/20%Monthly2018-05-31 08:01
http://cfarma2.com/cuisine-a-petit-prix/6942/20%Monthly2018-05-31 06:53
http://cfarma2.com/blog-cuisine-gourmande-3/42162/20%Monthly2018-05-31 00:03
http://cfarma2.com/buffet-de-cuisine-2/47598/20%Monthly2018-05-30 23:50
http://cfarma2.com/boutis-byzance-vent-du-sud-ardoise-2/43706/20%Monthly2018-05-30 23:41
http://cfarma2.com/couvert-de-table-design/6305/20%Monthly2018-05-30 22:48
http://cfarma2.com/construction-cuisine-marocaine-2/49511/20%Monthly2018-05-30 22:42
http://cfarma2.com/cardinaliser-en-cuisine/4716/20%Monthly2018-05-30 18:20
http://cfarma2.com/boutis-lin-230-x-250-2/45502/20%Monthly2018-05-30 14:54
http://cfarma2.com/acheter-un-boutis-de-lit/488/20%Monthly2018-05-30 09:33
http://cfarma2.com/colonne-cuisine-50-cm/5560/20%Monthly2018-05-30 09:01
http://cfarma2.com/conception-cuisine-en-ligne/5805/20%Monthly2018-05-30 06:32
http://cfarma2.com/boutis-lit-parure-2/45682/20%Monthly2018-05-30 05:54
http://cfarma2.com/concepteur-de-cuisine/5801/20%Monthly2018-05-30 03:02
http://cfarma2.com/cuisine-3d-lapeyre/6908/20%Monthly2018-05-30 03:01
http://cfarma2.com/boutis-bleu-la-redoute-2/43564/20%Monthly2018-05-30 01:29
http://cfarma2.com/boutis-velours-maison-du-monde/4224/20%Monthly2018-05-29 08:05
http://cfarma2.com/boutis-de-blandine-calendrier-2/44167/20%Monthly2018-05-29 06:30
http://cfarma2.com/boutis-2pl-3/42822/20%Monthly2018-05-29 05:45
http://cfarma2.com/amenagement-petite-cuisine-4m2/1014/20%Monthly2018-05-29 03:20
http://cfarma2.com/boutis-coudre-facilement-2/43917/20%Monthly2018-05-29 00:55
http://cfarma2.com/cuisine-bois-playtive-junior-2/51179/20%Monthly2018-05-28 23:28
http://cfarma2.com/boutis-bicolore-la-redoute-2/43280/20%Monthly2018-05-28 22:51
http://cfarma2.com/alibaba-manufacture-boutis/664/20%Monthly2018-05-28 22:50
http://cfarma2.com/belle-table-de-noel-3/41966/20%Monthly2018-05-28 18:31
http://cfarma2.com/catalogue-cuisine-schmidt/4872/20%Monthly2018-05-28 15:48
http://cfarma2.com/boutis-rouge-ancien-2/46918/20%Monthly2018-05-28 11:52
http://cfarma2.com/boutis-gris-clair-la-redoute/2853/20%Monthly2018-05-28 09:30
http://cfarma2.com/atelier-cuisine-meetic-montpellier-3/41108/20%Monthly2018-05-28 08:42
http://cfarma2.com/cuisine-addict/6971/20%Monthly2018-05-28 06:38
http://cfarma2.com/boutis-mondial-tissus-2/46034/20%Monthly2018-05-28 06:31
http://cfarma2.com/cours-de-cuisine-colmar/6118/20%Monthly2018-05-28 04:34
http://cfarma2.com/boutis-n-2/46144/20%Monthly2018-05-27 21:27
http://cfarma2.com/cherche-des-modeles-de-boutis/5416/20%Monthly2018-05-27 20:46
http://cfarma2.com/armoire-de-cuisine-ikea/1280/20%Monthly2018-05-27 17:54
http://cfarma2.com/boutis-bleu-blancheporte-2/43520/20%Monthly2018-05-27 13:09
http://cfarma2.com/boutis-rouge-maison-du-monde-2/46972/20%Monthly2018-05-27 10:09
http://cfarma2.com/caisson-cuisine-profondeur-50-2/47920/20%Monthly2018-05-27 09:49
http://cfarma2.com/boutis-jete-de-canape-2/45292/20%Monthly2018-05-27 08:32
http://cfarma2.com/blancheporte-solde-boutis-3/42078/20%Monthly2018-05-27 07:52
http://cfarma2.com/broderie-boutis-technique/4418/20%Monthly2018-05-27 06:34
http://cfarma2.com/conforama-meuble-bas-cuisine-2/49403/20%Monthly2018-05-27 06:22
http://cfarma2.com/boutis-pour-lit-140x200/3701/20%Monthly2018-05-27 02:16
http://cfarma2.com/cuisine-bois-lidl-2/51157/20%Monthly2018-05-27 01:24
http://cfarma2.com/cours-cuisine-nantes/6062/20%Monthly2018-05-26 16:39
http://cfarma2.com/caresse-sous-la-table/4717/20%Monthly2018-05-26 14:17
http://cfarma2.com/boutis-fait-maison-2/44893/20%Monthly2018-05-26 12:21
http://cfarma2.com/cache-sommier-dessus-de-lit-en-boutis-2/47814/20%Monthly2018-05-26 05:26
http://cfarma2.com/cuisine-alinea-lys/6991/20%Monthly2018-05-26 04:20
http://cfarma2.com/boutis-moderne-pas-cher-2/46012/20%Monthly2018-05-26 03:53
http://cfarma2.com/boutis-velours-gris-perle/4217/20%Monthly2018-05-26 03:37
http://cfarma2.com/boutis-noir-velour-2/46222/20%Monthly2018-05-26 03:07
http://cfarma2.com/couvre-lit-boutis-jacquard-blanc-collection/6586/20%Monthly2018-05-26 02:52
http://cfarma2.com/chevalet-de-table-peinture/5424/20%Monthly2018-05-25 23:25
http://cfarma2.com/boutis-patchwork-blanche-porte-2/46430/20%Monthly2018-05-25 17:15
http://cfarma2.com/bar-cuisine-ouverte-3/41598/20%Monthly2018-05-25 13:35
http://cfarma2.com/boutis-poilu/3662/20%Monthly2018-05-25 11:01
http://cfarma2.com/coussins-boutis-tete-de-lit/6261/20%Monthly2018-05-25 01:23
http://cfarma2.com/couvre-lit-boutis-250x270-motif-contemporain/6385/20%Monthly2018-05-25 00:35
http://cfarma2.com/boutis-lis-2/45578/20%Monthly2018-05-24 21:19
http://cfarma2.com/boutis-velours-rose/4228/20%Monthly2018-05-24 19:41
http://cfarma2.com/a-table-avec-thermomix/178/20%Monthly2018-05-24 17:40
http://cfarma2.com/boutis-californie-2/43722/20%Monthly2018-05-24 16:08
http://cfarma2.com/cuisine-aucune/7104/20%Monthly2018-05-24 14:26
http://cfarma2.com/boutis-bio-2/43290/20%Monthly2018-05-24 05:24
http://cfarma2.com/boutis-varaise/4198/20%Monthly2018-05-24 01:58
http://cfarma2.com/art-et-cuisine-tahiti/1332/20%Monthly2018-05-23 18:22
http://cfarma2.com/boutis-patchwork-multicolore-2/46466/20%Monthly2018-05-23 17:41
http://cfarma2.com/boutis-double-face-lovely-casa-2/44451/20%Monthly2018-05-23 16:30
http://cfarma2.com/comment-relouke-un-abat-jour-en-boutis/5728/20%Monthly2018-05-23 15:36
http://cfarma2.com/cuisine-adelie/6975/20%Monthly2018-05-23 08:18
http://cfarma2.com/boutis-blanc-avec-enveloppes-oreeillers-2/43334/20%Monthly2018-05-23 02:16
http://cfarma2.com/boutis-toile-de-jouy-rouge/4117/20%Monthly2018-05-22 20:18
http://cfarma2.com/blog-deco-cuisine-3/42230/20%Monthly2018-05-22 20:02
http://cfarma2.com/boutis-au-mettre-vert-deau-3/43066/20%Monthly2018-05-22 19:15
http://cfarma2.com/cuisine-bois-et-blanc/7283/20%Monthly2018-05-22 19:10
http://cfarma2.com/blancheportefr-le-boutis-3/42080/20%Monthly2018-05-22 18:37
http://cfarma2.com/boutis-taupe-1-personne/4058/20%Monthly2018-05-22 13:13
http://cfarma2.com/carrelage-cuisine-credence/4756/20%Monthly2018-05-22 12:57
http://cfarma2.com/cuisine-brokhult-2/51249/20%Monthly2018-05-22 12:21
http://cfarma2.com/boutis-mme-morel-2/45972/20%Monthly2018-05-22 12:09
http://cfarma2.com/boutis-ecru-beige-pas-cher-2/44491/20%Monthly2018-05-22 07:28
http://cfarma2.com/750g-la-table/124/20%Monthly2018-05-22 06:55
http://cfarma2.com/boutis-ado-3/42918/20%Monthly2018-05-22 06:38
http://cfarma2.com/boutis-dictionnaire-2/44425/20%Monthly2018-05-22 00:02
http://cfarma2.com/cuisine-beckermann-darty/7191/20%Monthly2018-05-21 18:37
http://cfarma2.com/but-boutis-2/47636/20%Monthly2018-05-21 17:21
http://cfarma2.com/cuisine-avec-parquet/7142/20%Monthly2018-05-21 16:12
http://cfarma2.com/colonne-cuisine-rangement/5571/20%Monthly2018-05-21 15:51
http://cfarma2.com/credence-plexiglas-cuisine/6843/20%Monthly2018-05-21 15:21
http://cfarma2.com/ciseaux-de-brodeuse-boutis-courbe/5462/20%Monthly2018-05-21 08:00
http://cfarma2.com/boutis-marque-scenario-en-coton-2/45834/20%Monthly2018-05-21 07:28
http://cfarma2.com/boutis-les-soeurs-sostrene-2/45456/20%Monthly2018-05-21 06:22
http://cfarma2.com/comment-ouvrir-un-oursin-cuisine/5705/20%Monthly2018-05-21 03:31
http://cfarma2.com/boutis-uni-140-x-200/4169/20%Monthly2018-05-20 21:06
http://cfarma2.com/couvre-lit-boutis-candy-bleu-turquoise/6476/20%Monthly2018-05-20 17:03
http://cfarma2.com/colo-cuisine-ado/5552/20%Monthly2018-05-20 11:57
http://cfarma2.com/boutis-vichy-rouge-et-blanc-coeur/4284/20%Monthly2018-05-20 06:11
http://cfarma2.com/boutis-2-places-jaune-3/42626/20%Monthly2018-05-20 04:11
http://cfarma2.com/aux-pieds-sous-la-table-3/41242/20%Monthly2018-05-20 03:14
http://cfarma2.com/couvre-lit-boutis-gris-clair-coton/6565/20%Monthly2018-05-19 23:51
http://cfarma2.com/cuisine-autrichienne/7109/20%Monthly2018-05-19 20:27
http://cfarma2.com/cuisine-black-friday/7213/20%Monthly2018-05-19 18:51
http://cfarma2.com/cote-cours-cote-cuisine-2/49573/20%Monthly2018-05-19 18:17
http://cfarma2.com/a-ma-table/156/20%Monthly2018-05-19 16:46
http://cfarma2.com/boutis-toile-de-jouy-rose/4116/20%Monthly2018-05-19 07:02
http://cfarma2.com/boutis-liberty-eloise-cyrillus-2/45478/20%Monthly2018-05-19 04:44
http://cfarma2.com/compote-de-pommes-monsieur-cuisine/5782/20%Monthly2018-05-19 03:30
http://cfarma2.com/boutis-fleuri-gris-2/44931/20%Monthly2018-05-18 21:55
http://cfarma2.com/boutis-bleu-canard-2/43524/20%Monthly2018-05-18 21:32
http://cfarma2.com/create-table-as-select-oracle/6782/20%Monthly2018-05-18 21:28
http://cfarma2.com/boutis-lit-enfant-vert-baudet-2/45656/20%Monthly2018-05-18 19:10
http://cfarma2.com/championnat-de-france-tennis-de-table-2/48561/20%Monthly2018-05-18 15:08
http://cfarma2.com/balance-cuisine-amazon-3/41426/20%Monthly2018-05-18 14:34
http://cfarma2.com/amazone-couvre-lit-boutis-rose/940/20%Monthly2018-05-18 13:58
http://cfarma2.com/boutis-fontainebleau/2746/20%Monthly2018-05-18 13:45
http://cfarma2.com/cuisine-alcaline/6986/20%Monthly2018-05-18 10:03
http://cfarma2.com/boutis-provencal-lit-90-2/46706/20%Monthly2018-05-18 06:43
http://cfarma2.com/comment-poser-un-ouvrage-en-boutis-sur-abat-jour/5718/20%Monthly2018-05-18 04:48
http://cfarma2.com/cote-cuisine-reims-2/49581/20%Monthly2018-05-18 03:07
http://cfarma2.com/cuisine-bebe-ikea/7187/20%Monthly2018-05-18 02:20
http://cfarma2.com/couvre-lit-boutis-220x240-emma-nuance-du-monde/6375/20%Monthly2018-05-18 01:46
http://cfarma2.com/boutis-bensimon-2/43262/20%Monthly2018-05-18 00:38
http://cfarma2.com/boutis-lavable-2/45412/20%Monthly2018-05-17 22:57
http://cfarma2.com/boutis-maya-2/45938/20%Monthly2018-05-17 20:24
http://cfarma2.com/cuisine-blanche-et-verte/7233/20%Monthly2018-05-17 18:55
http://cfarma2.com/cours-de-cuisine-clermont-ferrand/6117/20%Monthly2018-05-17 18:28
http://cfarma2.com/boutis-patchwork-gris-et-rose-2/46452/20%Monthly2018-05-17 15:39
http://cfarma2.com/changer-facade-cuisine-ikea-2/48601/20%Monthly2018-05-17 10:53
http://cfarma2.com/cuisine-city/7458/20%Monthly2018-05-17 07:18
http://cfarma2.com/boutis-ancien-ebay-3/42964/20%Monthly2018-05-17 05:48
http://cfarma2.com/boutis-180-250-3/42572/20%Monthly2018-05-17 04:06
http://cfarma2.com/boutis-de-particuliers-a-particuliers-2/44299/20%Monthly2018-05-17 01:53
http://cfarma2.com/boutis-voile-de-coton-susheel/4311/20%Monthly2018-05-17 01:22
http://cfarma2.com/alter-table/820/20%Monthly2018-05-16 20:41
http://cfarma2.com/amenagement-petite-cuisine-3m2/1012/20%Monthly2018-05-16 17:45
http://cfarma2.com/boutis-de-lit-esprit-chalet-2/44229/20%Monthly2018-05-16 16:07
http://cfarma2.com/bruit-dans-la-cuisine/4429/20%Monthly2018-05-16 11:07
http://cfarma2.com/conforama-meuble-de-rangement-pour-cuisine-2/49415/20%Monthly2018-05-16 11:05
http://cfarma2.com/banquette-table-a-manger-3/41584/20%Monthly2018-05-16 06:22
http://cfarma2.com/amenagement-cuisine-professionnelle/990/20%Monthly2018-05-16 04:12
http://cfarma2.com/boutis-dentelle-2/44357/20%Monthly2018-05-16 00:05
http://cfarma2.com/boutis-90-sur-190-3/42856/20%Monthly2018-05-15 22:05
http://cfarma2.com/couvre-lit-et-boutis/6730/20%Monthly2018-05-15 16:30
http://cfarma2.com/boutis-rose-cotton-2/46860/20%Monthly2018-05-15 13:15
http://cfarma2.com/brioche-butchy-monsieur-cuisine-plus/4396/20%Monthly2018-05-15 10:21
http://cfarma2.com/boutis-anglais-3/42994/20%Monthly2018-05-15 03:09
http://cfarma2.com/batterie-de-cuisine-induction-ikea-3/41734/20%Monthly2018-05-14 18:47
http://cfarma2.com/concours-meilleur-ouvrier-de-france-cuisine/5826/20%Monthly2018-05-14 17:01
http://cfarma2.com/coin-repas-cuisine-banquette-angle/5545/20%Monthly2018-05-14 14:10
http://cfarma2.com/boutis-a-quoi-ca-sert-3/42898/20%Monthly2018-05-14 13:27
http://cfarma2.com/couvre-lit-boutis-260x280/6396/20%Monthly2018-05-14 09:03
http://cfarma2.com/bouchon-de-vidange-evier-de-cuisine-3/42402/20%Monthly2018-05-14 06:56
http://cfarma2.com/boutis-fleurs-en-relief/2736/20%Monthly2018-05-14 06:14
http://cfarma2.com/chemin-de-table-boutis-taupe-2/48833/20%Monthly2018-05-14 04:31
http://cfarma2.com/art-de-la-table-nantes/1318/20%Monthly2018-05-14 01:52
http://cfarma2.com/boutis-jaune-et-bleu-2/45258/20%Monthly2018-05-13 22:27
http://cfarma2.com/boutis-luxe-2/45736/20%Monthly2018-05-13 13:02
http://cfarma2.com/atelier-cuisine-enfant/1456/20%Monthly2018-05-13 10:04
http://cfarma2.com/bora-aspiration-cuisine-prix-3/42364/20%Monthly2018-05-13 09:08
http://cfarma2.com/boutis-lierty-grande-taille-2/45494/20%Monthly2018-05-13 04:54
http://cfarma2.com/boutis-rouge-et-taupe-2/46954/20%Monthly2018-05-12 19:58
http://cfarma2.com/cuisine-blanche-mur-couleur/7238/20%Monthly2018-05-12 12:23
http://cfarma2.com/cours-de-cuisine-montpellier/6166/20%Monthly2018-05-12 11:39
http://cfarma2.com/couvre-lit-boutis-polyester-jacquard-2/50416/20%Monthly2018-05-12 11:00
http://cfarma2.com/couleurs-sud-boutis-marque-2/49717/20%Monthly2018-05-12 10:57
http://cfarma2.com/cuisine-antillaise/7044/20%Monthly2018-05-12 09:49
http://cfarma2.com/cuisine-americain/7015/20%Monthly2018-05-12 09:27
http://cfarma2.com/comment-nettoyer-un-siphon-de-cuisine/5697/20%Monthly2018-05-12 08:53
http://cfarma2.com/barbecue-de-table-charbon-3/41634/20%Monthly2018-05-12 08:19
http://cfarma2.com/couvre-lits-en-boutis-matelasse-la-redoute/6761/20%Monthly2018-05-12 06:34
http://cfarma2.com/couvre-lit-style-boutis-pas-cher/6752/20%Monthly2018-05-12 05:33
http://cfarma2.com/boutis-montagne-pas-cher-2/46052/20%Monthly2018-05-11 21:05
http://cfarma2.com/boutis-gris-jaune/2880/20%Monthly2018-05-11 19:03
http://cfarma2.com/boutis-de-lit-linvosges-2/44241/20%Monthly2018-05-11 15:10
http://cfarma2.com/boutis-courtepointe-2/44003/20%Monthly2018-05-11 15:02
http://cfarma2.com/cuisine-compacte/7480/20%Monthly2018-05-11 06:49
http://cfarma2.com/boutis-fleuri-2/44951/20%Monthly2018-05-10 22:59
http://cfarma2.com/cocktail-scandinave-cuisine/5505/20%Monthly2018-05-10 18:18
http://cfarma2.com/boutis-260x280-pas-cher-3/42790/20%Monthly2018-05-10 18:01
http://cfarma2.com/couvre-lit-boutis-vent-du-sud-2/50514/20%Monthly2018-05-10 17:52
http://cfarma2.com/boulanger-balance-cuisine-3/42410/20%Monthly2018-05-10 16:22
http://cfarma2.com/102-motifs-de-boutis/5/20%Monthly2018-05-10 14:27
http://cfarma2.com/creme-anglaise-monsieur-cuisine/6859/20%Monthly2018-05-10 13:51
http://cfarma2.com/boutis-ethniques-2/44837/20%Monthly2018-05-10 10:52
http://cfarma2.com/cuisine-arrondie/7062/20%Monthly2018-05-10 10:41
http://cfarma2.com/adibou-cuisine-en-ligne/550/20%Monthly2018-05-10 08:37
http://cfarma2.com/boutis-plaid-couvre-lit-couleur-or/3646/20%Monthly2018-05-10 06:05
http://cfarma2.com/boutis-nappes-rideaux-2/46160/20%Monthly2018-05-10 05:38
http://cfarma2.com/classement-tennis-de-table-mondial/5483/20%Monthly2018-05-10 04:34
http://cfarma2.com/couverture-boutis-bebe/6316/20%Monthly2018-05-10 03:51
http://cfarma2.com/casa-table/4808/20%Monthly2018-05-10 03:22
http://cfarma2.com/approchons-nous-de-la-table-partition/1216/20%Monthly2018-05-10 00:59
http://cfarma2.com/boutis-mandala-2/45798/20%Monthly2018-05-10 00:51
http://cfarma2.com/boutis-uni-1-personne/4166/20%Monthly2018-05-09 22:40
http://cfarma2.com/couvre-lit-boutis-moderne-becquet-2/50368/20%Monthly2018-05-09 22:24
http://cfarma2.com/boutis-et-tete-delit-assortie-en-soldes-2/44805/20%Monthly2018-05-09 16:36
http://cfarma2.com/boutis-matelasse-blanc-2/45890/20%Monthly2018-05-09 15:54
http://cfarma2.com/boutis-provencale-emma-2/46724/20%Monthly2018-05-09 09:10
http://cfarma2.com/boutis-gris-avec-des-coeur/2842/20%Monthly2018-05-09 08:08
http://cfarma2.com/boutis-coton-les-3-suisses/2189/20%Monthly2018-05-09 07:35
http://cfarma2.com/boutis-taupe-blanc/4067/20%Monthly2018-05-09 06:31
http://cfarma2.com/boutis-royaute-2/47004/20%Monthly2018-05-09 05:13
http://cfarma2.com/comment-renover-une-cuisine-equipee/5731/20%Monthly2018-05-09 02:40
http://cfarma2.com/amazone-boutis-orange/936/20%Monthly2018-05-09 02:08
http://cfarma2.com/boutis-point-daix/3663/20%Monthly2018-05-09 01:20
http://cfarma2.com/boutis-soldes-paris/3986/20%Monthly2018-05-08 23:19
http://cfarma2.com/but-meuble-de-cuisine-2/47678/20%Monthly2018-05-08 21:25
http://cfarma2.com/cuisine-choumicha-youtube/7455/20%Monthly2018-05-08 17:47
http://cfarma2.com/boutis-jame-230-250-la-redoute-2/45230/20%Monthly2018-05-08 15:24
http://cfarma2.com/affiche-pour-cuisine-gratuit/576/20%Monthly2018-05-08 12:31
http://cfarma2.com/couvre-lit-boutis-halton-170x240-couleur-anthracite/6574/20%Monthly2018-05-08 11:42
http://cfarma2.com/c-est-au-programme-recette-cuisine-du-jour-2/47740/20%Monthly2018-05-08 10:59
http://cfarma2.com/chemin-de-table-en-toile-de-jute-2/48863/20%Monthly2018-05-08 10:18
http://cfarma2.com/accessoires-de-boutis-petite-mercerie/346/20%Monthly2018-05-08 02:30
http://cfarma2.com/boutis-decorcom-foret-blanche-bleu-2/44339/20%Monthly2018-05-08 02:06
http://cfarma2.com/cuisine-complete-avec-ilot/7489/20%Monthly2018-05-08 00:35
http://cfarma2.com/boutis-couleur-bordeaux-2/43935/20%Monthly2018-05-07 23:33
http://cfarma2.com/casa-table-de-chevet/4805/20%Monthly2018-05-07 22:54
http://cfarma2.com/bloc-porte-placard-cuisine-3/42122/20%Monthly2018-05-07 20:23
http://cfarma2.com/balance-de-cuisine-soehnle-66171-3/41500/20%Monthly2018-05-07 19:42
http://cfarma2.com/couvre-lit-boutis-1-place/6355/20%Monthly2018-05-07 17:45
http://cfarma2.com/ab-cuisine-oran/240/20%Monthly2018-05-07 17:24
http://cfarma2.com/conforama-meuble-cuisine-2/49411/20%Monthly2018-05-07 11:53
http://cfarma2.com/boutis-france-inter/2757/20%Monthly2018-05-06 22:02
http://cfarma2.com/comment-garnir-le-boutis/5680/20%Monthly2018-05-06 16:02
http://cfarma2.com/article-de-cuisine/1352/20%Monthly2018-05-06 08:40
http://cfarma2.com/monica-cauchemar-en-cuisine/14442/20%Monthly2018-05-06 06:51
http://cfarma2.com/bpl-point-table-2019/4343/20%Monthly2018-05-06 04:22
http://cfarma2.com/casa-bena-cuisine/4800/20%Monthly2018-05-05 19:50
http://cfarma2.com/comment-finir-un-boutis-au-point-de-feston/5675/20%Monthly2018-05-05 18:24
http://cfarma2.com/boutis-bleu-2/43608/20%Monthly2018-05-05 11:16
http://cfarma2.com/couleur-bleu-cuisine-2/49643/20%Monthly2018-05-05 07:29
http://cfarma2.com/acheter-kit-boutis/460/20%Monthly2018-05-05 03:36
http://cfarma2.com/couvre-lit-boutis-soldes-linvosges-2/50478/20%Monthly2018-05-05 01:50
http://cfarma2.com/batterie-de-cuisine-the-rock-3/41768/20%Monthly2018-05-05 01:20
http://cfarma2.com/couleur-mur-cuisine-blanche-2/49683/20%Monthly2018-05-04 23:50
http://cfarma2.com/boutis-et-taies-2/44797/20%Monthly2018-05-04 19:07
http://cfarma2.com/boutis-a-la-campagne-mme-morel-3/42876/20%Monthly2018-05-04 17:18
http://cfarma2.com/boutis-md266-2/45940/20%Monthly2018-05-04 14:11
http://cfarma2.com/cerise-collection-cassandre-de-colombine-boutis/5057/20%Monthly2018-05-04 04:29
http://cfarma2.com/cuisine-and-store/7032/20%Monthly2018-05-04 02:37
http://cfarma2.com/boutis-gipsy/2790/20%Monthly2018-05-03 22:02
http://cfarma2.com/becquet-boutis-fleuri-facon-aquarelle-3/41844/20%Monthly2018-05-03 18:40
http://cfarma2.com/boutis-dans-cercle-2/44161/20%Monthly2018-05-03 14:45
http://cfarma2.com/boutis-plume/3655/20%Monthly2018-05-03 11:43
http://cfarma2.com/calcul-point-tennis-de-table-2/47970/20%Monthly2018-05-03 10:31
http://cfarma2.com/ciseau-pour-boutis/5459/20%Monthly2018-05-03 09:33
http://cfarma2.com/comment-utiliser-la-gomme-de-guar-en-cuisine/5741/20%Monthly2018-05-03 08:36
http://cfarma2.com/boutis-fr/2752/20%Monthly2018-05-03 08:21
http://cfarma2.com/boutis-la-cadiere-d-azur-2/45356/20%Monthly2018-05-03 04:01
http://cfarma2.com/bruit-dans-la-cuisine-dijon/4428/20%Monthly2018-05-03 03:34
http://cfarma2.com/branchement-bouche-vmc-cuisine/4347/20%Monthly2018-05-02 19:48
http://cfarma2.com/adap-table/520/20%Monthly2018-05-02 17:41
http://cfarma2.com/boutis-bysance-vent-du-sud-2/43700/20%Monthly2018-05-02 15:16
http://cfarma2.com/boutis-campagne/2044/20%Monthly2018-05-02 11:39
http://cfarma2.com/couvre-lit-boutis-gris-blanc-et-noir/6564/20%Monthly2018-05-02 11:34
http://cfarma2.com/boutis-cote-dor/2152/20%Monthly2018-05-02 11:08
http://cfarma2.com/caffe-cuisine-2/47850/20%Monthly2018-05-02 09:28
http://cfarma2.com/cuisine-casimir-2/51339/20%Monthly2018-05-02 08:14
http://cfarma2.com/batterie-de-cuisine-herzberg-3/41732/20%Monthly2018-05-02 05:50
http://cfarma2.com/a-table-pontoise/224/20%Monthly2018-05-02 05:08
http://cfarma2.com/boutis-point-de-vauvert/3665/20%Monthly2018-05-02 03:40
http://cfarma2.com/cuisine-congolaise/7510/20%Monthly2018-05-02 00:51
http://cfarma2.com/chemin-de-table-or/5363/20%Monthly2018-05-01 23:56
http://cfarma2.com/becquet-plaid-boutis-3/41930/20%Monthly2018-05-01 12:27
http://cfarma2.com/caisson-pour-cuisine-2/47962/20%Monthly2018-05-01 03:52
http://cfarma2.com/boutis-couvre-lit-artisanal-230x250-2/44035/20%Monthly2018-05-01 02:40
http://cfarma2.com/boutis-a-lyon-3/42886/20%Monthly2018-05-01 00:57
http://cfarma2.com/alphabet-en-boutis-gratuit/770/20%Monthly2018-05-01 00:47